Погода в Кочубее

Россия / Республика Дагестан     44°23′31″N   46°32′45″E
темп.,
°C
ветер,
м/с
пор.,
м/с
влажн.,
%
обл.,
%
осадки,
мм/ч
давл.,
гПа
погр.,
м
12 мая, ср
ср1200:00+13вюв33730 0.0 101653
03:00+11ююв12813 0.0 101517
06:00+13юз11730 0.0 101677
09:00+17вюв22591 0.0 1017977
12:00+20в54480 0.0 10161195
15:00+20в65500 0.0 1016912
18:00+18в44550 0.0 1016413
21:00+15юв35620 0.0 1015106
13 мая, чт
чт1300:00+13ююв3468100 0.0 101582
03:00+12ююв236737 0.0 101445
06:00+14юв34674 0.0 1014136
09:00+20в34520 0.0 1015618
12:00+21в65490 0.0 1015708
15:00+21в55500 0.0 1015553
18:00+18в56650 0.0 1015293
21:00+16вюв46730 0.0 1015161
14 мая, пт
пт1400:00+15вюв47797 0.0 1015161
03:00+15в468934 0.0 1014108
06:00+17вюв3976100 0.0 1014253
09:00+24вюв711455 0.0 1014656
12:00+27вюв911370 0.0 1014770
15:00+26вюв1114430 0.0 1013643
18:00+22вюв919490 0.0 1013505
21:00+20вюв820374 0.0 1014439
15 мая, сб
сб1500:00+20вюв718380 0.0 1013358
03:00+18вюв817520 0.0 1012307
06:00+19вюв717540 0.0 1013398
09:00+26вюв913290 0.0 1013643
12:00+30вюв913200 0.0 10131318
15:00+29вюв1013240 0.0 10131154
18:00+23вюв813500 0.0 1013390
21:00+19вюв6155728 0.0 1014258
16 мая, вс
вс1600:00+18вюв715674 0.0 1013261
03:00+19вюв715570 0.0 1012247
06:00+20вюв613550 0.0 1012296
09:00+27вюв813350 0.0 1011618
12:00+28вюв1114340 0.0 1010997
15:00+26вюв1218340 0.0 1009817
18:00+22в1019480 0.0 1009571
21:00+20в920510 0.0 1009452